Weather History for Tunica, MS

Change the Weather History Date:

Friday, May 24, 2013

  Actual Average (KMEM) Record (KMEM)
Temperature  
Mean Temperature 67 °F 74 °F  
Max Temperature 75 °F 83 °F 93 °F (1996)
Min Temperature 59 °F 65 °F 47 °F (1925)
Degree Days  
Heating Degree Days 0 0  
Month to date heating degree days 17  
Since 1 July heating degree days 2962  
Cooling Degree Days 2 9  
Month to date cooling degree days 155  
Year to date cooling degree days 250  
Growing Degree Days 17 (Base 50)    
Moisture  
Dew Point 53 °F    
Average Humidity 64    
Maximum Humidity 88    
Minimum Humidity 34    
Precipitation  
Precipitation 0.00 in 0.16 in 1.34 in (1927)
Month to date precipitation 4.17  
Year to date precipitation 23.20  
Snow  
Snow 0.00 in 0.00 in - ()
Month to date snowfall 0.0  
Since 1 July snowfall 3.8  
Snow Depth -    
Sea Level Pressure  
Sea Level Pressure 30.23 in    
Wind  
Wind Speed 10 mph (NE)    
Max Wind Speed 18 mph    
Max Gust Speed 24 mph    
Visibility 10 miles    
Events      
T = Trace of Precipitation, MM = Missing Value Source: NWS Daily Summary

Daily Weather History Graph

Daily Weather History Graph

Search for Another Location

Airport:

Trip Planner

Search our weather history database for the weather conditions in past years. The results will help you decide how hot, cold, wet, or windy it might be!

Date:

Astronomy

May. 24, 2013 Rise Set
Actual Time 5:52 AM CDT 8:04 PM CDT
Civil Twilight 5:24 AM CDT 8:32 PM CDT
Nautical Twilight 4:49 AM CDT 9:07 PM CDT
Astronomical Twilight 4:11 AM CDT 9:45 PM CDT
Moon 7:47 PM CDT (5/24) 5:22 AM CDT (5/24)
Length of Visible Light 15h 08m
Length of Day
14h 11m
Full, 100% of the Moon is Illuminated
May 24
Full
May 24
Full
May 31
Last Quarter
Jun 8
New
Jun 16
First Quarter

Hourly Weather History & Observations

Time (CDT) Temp. Dew Point Humidity Pressure Visibility Wind Dir Wind Speed Gust Speed Precip Events Conditions
12:15 AM 68.0 °F 60.8 °F 78% 30.13 in 10.0 mi NNE 8.1 mph - N/A   Scattered Clouds
12:35 AM 68.0 °F 59.0 °F 73% 30.15 in 10.0 mi North 6.9 mph - N/A   Mostly Cloudy
12:55 AM 66.2 °F 60.8 °F 83% 30.14 in 10.0 mi North 6.9 mph - N/A   Mostly Cloudy
1:15 AM 64.4 °F 59.0 °F 83% 30.14 in 10.0 mi NNE 9.2 mph - N/A   Scattered Clouds
1:35 AM 64.4 °F 59.0 °F 83% 30.15 in 10.0 mi NNE 8.1 mph - N/A   Clear
1:55 AM 64.4 °F 59.0 °F 83% 30.15 in 10.0 mi NNE 10.4 mph - N/A   Clear
2:15 AM 64.4 °F 57.2 °F 77% 30.15 in 10.0 mi NNE 11.5 mph - N/A   Scattered Clouds
2:35 AM 64.4 °F 59.0 °F 83% 30.15 in 10.0 mi NNE 8.1 mph - N/A   Scattered Clouds
2:55 AM 64.4 °F 57.2 °F 77% 30.16 in 10.0 mi North 6.9 mph - N/A   Mostly Cloudy
3:15 AM 64.4 °F 57.2 °F 77% 30.15 in 10.0 mi NNE 9.2 mph - N/A   Mostly Cloudy
3:35 AM 62.6 °F 57.2 °F 82% 30.16 in 10.0 mi NNE 10.4 mph - N/A   Scattered Clouds
3:55 AM 62.6 °F 57.2 °F 82% 30.16 in 10.0 mi NNE 11.5 mph - N/A   Clear
4:15 AM 62.6 °F 57.2 °F 82% 30.18 in 10.0 mi NNE 11.5 mph - N/A   Clear
4:35 AM 62.6 °F 55.4 °F 77% 30.17 in 10.0 mi NNE 11.5 mph - N/A   Clear
4:55 AM 60.8 °F 55.4 °F 82% 30.18 in 10.0 mi NNE 8.1 mph - N/A   Clear
5:15 AM 60.8 °F 57.2 °F 88% 30.19 in 10.0 mi NNE 13.8 mph - N/A   Clear
5:35 AM 60.8 °F 55.4 °F 82% 30.20 in 10.0 mi NNE 8.1 mph - N/A   Scattered Clouds
5:55 AM 60.8 °F 55.4 °F 82% 30.22 in 10.0 mi NNE 10.4 mph - N/A   Scattered Clouds
6:15 AM 59.0 °F 53.6 °F 82% 30.23 in 10.0 mi NNE 10.4 mph - N/A   Clear
6:35 AM 59.0 °F 53.6 °F 82% 30.24 in 10.0 mi NNE 11.5 mph - N/A   Clear
6:55 AM 59.0 °F 51.8 °F 77% 30.25 in 10.0 mi NNE 11.5 mph - N/A   Clear
7:15 AM 59.0 °F 53.6 °F 82% 30.26 in 10.0 mi NNE 16.1 mph - N/A   Clear
7:35 AM 60.8 °F 51.8 °F 72% 30.27 in 10.0 mi NE 17.3 mph 21.9 mph N/A   Clear
7:55 AM 60.8 °F 53.6 °F 77% 30.27 in 10.0 mi NE 18.4 mph 23.0 mph N/A   Clear
8:15 AM 60.8 °F 51.8 °F 72% 30.28 in 10.0 mi NNE 17.3 mph 24.2 mph N/A   Clear
8:35 AM 60.8 °F 51.8 °F 72% 30.28 in 10.0 mi NNE 13.8 mph 24.2 mph N/A   Clear
8:55 AM 60.8 °F 51.8 °F 72% 30.29 in 10.0 mi NNE 15.0 mph - N/A   Clear
9:15 AM 62.6 °F 51.8 °F 68% 30.29 in 10.0 mi NE 13.8 mph 19.6 mph N/A   Clear
9:35 AM 62.6 °F 51.8 °F 68% 30.29 in 10.0 mi NNE 13.8 mph - N/A   Clear
9:55 AM 64.4 °F 51.8 °F 64% 30.29 in 10.0 mi NNE 15.0 mph 19.6 mph N/A   Clear
10:15 AM 64.4 °F 51.8 °F 64% 30.29 in 10.0 mi NNE 15.0 mph 19.6 mph N/A   Clear
10:35 AM 66.2 °F 51.8 °F 60% 30.29 in 10.0 mi NE 11.5 mph 16.1 mph N/A   Clear
10:55 AM 68.0 °F 53.6 °F 60% 30.29 in 10.0 mi North 12.7 mph - N/A   Clear
11:15 AM 68.0 °F 51.8 °F 56% 30.30 in 10.0 mi NE 10.4 mph - N/A   Clear
11:35 AM 69.8 °F 51.8 °F 53% 30.30 in 10.0 mi North 9.2 mph - N/A   Clear
11:55 AM 69.8 °F 50.0 °F 49% 30.30 in 10.0 mi NNE 11.5 mph 18.4 mph N/A   Clear
12:15 PM 69.8 °F 51.8 °F 53% 30.29 in 10.0 mi NE 11.5 mph - N/A   Clear
12:35 PM 71.6 °F 50.0 °F 46% 30.28 in 10.0 mi ENE 11.5 mph - N/A   Clear
12:55 PM 71.6 °F 50.0 °F 46% 30.28 in 10.0 mi NE 10.4 mph - N/A   Clear
1:15 PM 71.6 °F 50.0 °F 46% 30.28 in 10.0 mi North 13.8 mph 18.4 mph N/A   Clear
1:35 PM 71.6 °F 50.0 °F 46% 30.27 in 10.0 mi NNE 12.7 mph - N/A   Clear
1:55 PM 73.4 °F 48.2 °F 41% 30.27 in 10.0 mi NNE 10.4 mph 17.3 mph N/A   Clear
2:15 PM 73.4 °F 50.0 °F 44% 30.27 in 10.0 mi NE 11.5 mph - N/A   Clear
2:35 PM 73.4 °F 46.4 °F 38% 30.27 in 10.0 mi NNE 12.7 mph - N/A   Clear
2:55 PM 75.2 °F 44.6 °F 34% 30.27 in 10.0 mi East 11.5 mph 18.4 mph N/A   Clear
3:15 PM 75.2 °F 48.2 °F 38% 30.27 in 10.0 mi NE 9.2 mph 16.1 mph N/A   Clear
3:35 PM 75.2 °F 44.6 °F 34% 30.27 in 10.0 mi NE 11.5 mph - N/A   Clear
3:55 PM 75.2 °F 46.4 °F 36% 30.27 in 10.0 mi NE 9.2 mph - N/A   Clear
4:15 PM 75.2 °F 48.2 °F 38% 30.25 in 10.0 mi NE 11.5 mph 17.3 mph N/A   Clear
4:35 PM 75.2 °F 46.4 °F 36% 30.25 in 10.0 mi NE 11.5 mph - N/A   Clear
4:55 PM 75.2 °F 48.2 °F 38% 30.23 in 10.0 mi NE 11.5 mph 16.1 mph N/A   Clear
5:15 PM 75.2 °F 48.2 °F 38% 30.23 in 10.0 mi NE 11.5 mph - N/A   Clear
5:35 PM 75.2 °F 48.2 °F 38% 30.21 in 10.0 mi ENE 10.4 mph - N/A   Clear
5:55 PM 73.4 °F 46.4 °F 38% 30.21 in 10.0 mi ENE 12.7 mph - N/A   Clear
6:15 PM 73.4 °F 50.0 °F 44% 30.20 in 10.0 mi NE 10.4 mph - N/A   Clear
6:35 PM 73.4 °F 48.2 °F 41% 30.20 in 10.0 mi ENE 9.2 mph - N/A   Clear
6:55 PM 73.4 °F 50.0 °F 44% 30.21 in 10.0 mi ENE 10.4 mph - N/A   Clear
7:15 PM 71.6 °F 50.0 °F 46% 30.21 in 10.0 mi NE 9.2 mph - N/A   Clear
7:35 PM 69.8 °F 50.0 °F 49% 30.22 in 10.0 mi NE 5.8 mph - N/A   Clear
7:55 PM 68.0 °F 53.6 °F 60% 30.22 in 10.0 mi NE 5.8 mph - N/A   Clear
8:15 PM 66.2 °F 55.4 °F 68% 30.22 in 10.0 mi ENE 5.8 mph - N/A   Clear
8:35 PM 64.4 °F 55.4 °F 73% 30.23 in 10.0 mi NE 5.8 mph - N/A   Clear
8:55 PM 64.4 °F 53.6 °F 68% 30.23 in 10.0 mi NE 4.6 mph - N/A   Clear
9:15 PM 62.6 °F 53.6 °F 72% 30.24 in 10.0 mi NE 3.5 mph - N/A   Clear
9:35 PM 62.6 °F 55.4 °F 77% 30.25 in 10.0 mi NE 4.6 mph - N/A   Clear
9:55 PM 62.6 °F 53.6 °F 72% 30.25 in 10.0 mi ENE 4.6 mph - N/A   Clear
10:15 PM 62.6 °F 55.4 °F 77% 30.26 in 10.0 mi ENE 5.8 mph - N/A   Clear
10:35 PM 62.6 °F 53.6 °F 72% 30.26 in 10.0 mi ENE 6.9 mph - N/A   Clear
10:55 PM 62.6 °F 53.6 °F 72% 30.26 in 10.0 mi ENE 6.9 mph - N/A   Clear
11:15 PM 62.6 °F 53.6 °F 72% 30.26 in 10.0 mi ENE 6.9 mph - N/A   Clear
11:35 PM 60.8 °F 53.6 °F 77% 30.25 in 10.0 mi ENE 5.8 mph - N/A   Clear
11:55 PM 60.8 °F 53.6 °F 77% 30.26 in 10.0 mi ENE 5.8 mph - N/A   Clear